STARLINK-2450

Last updated on Sat May 08 2021 00:02:04 GMT+0000 (Coordinated Universal Time)

1 48113U 21027X 21127.58334491 -.00526613 00000-0 -39546-2 0 9993 2 48113 53.0476 191.7432 0002364 26.0972 278.8575 15.73382572 1772

Satellite not in orbit